User: anonymous   Login
Location: Vancouver
(49.2500°N, 123.1330°W)
Time: 16:28:06
(UTC-07:00)
Language:

Cosmos 1408 Rocket - Orbit

View from above orbital plane
View from above orbital plane
View from above satellite
View from above satellite

Ground track
Ground track

The orbit data is extracted from the following two-line orbital elements,

1 13553U 82092B   17115.90772391 +.00000146 +00000-0 +14551-4 0  9992
2 13553 082.5665 282.7833 0020521 214.1507 256.8021 14.84117035869285
Epoch (UTC): 25 April 2017 21:47:07
Eccentricity: 0.0020521
inclination: 82.5665°
perigee height: 602 km
apogee height: 631 km
right ascension of ascending node: 282.7833°
argument of perigee: 214.1507°
revolutions per day: 14.84117035
mean anomaly at epoch: 256.8021°
orbit number at epoch: 86928

The dashed part of the orbit path shows where the satellite is in the earth's shadow,  

DLR